logo meteosicilia

Diretta Meteo Roma Fiumicino, Italiasabato 15 giugno ore 04:50

Mappa
Sereno 12 °C Sereno 24 Ore: T.min 12 T.max 25
Ponente Nord Km/h 3.7 Punto di rugiada: 12 °C Umidità: 100% Visibilità: 10 Km
Il sole sorge alle: 05:33 Il sole tramonta alle: 20:49
15 Giugno 2024 04:50 tempo osservato: Sereno Sereno 12 100 1015 vento: Nord N 3.7
15 Giugno 2024 04:20 tempo osservato: Sereno Sereno 13 93 1015 vento: Nord N 3.7
15 Giugno 2024 03:50 tempo osservato: Sereno Sereno 13 93 1015 vento: Nord N 5.5
15 Giugno 2024 03:20 tempo osservato: Sereno Sereno 14 93 1015 vento: Nord N 3.7
15 Giugno 2024 02:50 tempo osservato: Sereno Sereno 14 87 1016 vento: Nord E 7.4
15 Giugno 2024 02:20 tempo osservato: Sereno Sereno 15 87 1016 vento: Nord E 9.3
15 Giugno 2024 01:50 tempo osservato: Sereno Sereno 15 87 1016 vento: Nord E 7.4
15 Giugno 2024 01:20 tempo osservato: Sereno Sereno 16 82 1017 vento: Nord N 1.8
15 Giugno 2024 00:20 tempo osservato: Sereno Sereno 17 82 1017 vento: Nord N 3.7
14 Giugno 2024 23:50 tempo osservato: Sereno Sereno 18 82 1017 vento: Nord N 3.7
14 Giugno 2024 23:20 tempo osservato: Sereno Sereno 19 72 1017 vento: Nord N 5.5
14 Giugno 2024 22:50 tempo osservato: Sereno Sereno 19 72 1017 vento: Nord O 9.3
14 Giugno 2024 22:20 tempo osservato: Sereno Sereno 20 72 1017 vento: Nord O 11.1
14 Giugno 2024 21:50 tempo osservato: Sereno Sereno 20 72 1017 vento: Nord O 13
14 Giugno 2024 21:20 tempo osservato: Sereno Sereno 20 72 1017 vento: Nord O 11.1
14 Giugno 2024 20:50 tempo osservato: Sereno Sereno 20 72 1017 vento: Nord O 11.1
14 Giugno 2024 20:20 tempo osservato: Sereno Sereno 21 68 1017 vento: Nord O 13
14 Giugno 2024 19:50 tempo osservato: Sereno Sereno 22 60 1017 vento: Nord O 18.5
14 Giugno 2024 19:20 tempo osservato: Sereno Sereno 22 64 1017 vento: Nord O 22.2
14 Giugno 2024 18:50 tempo osservato: Sereno Sereno 23 60 1017 vento: Nord O 24
14 Giugno 2024 18:20 tempo osservato: Sereno Sereno 23 56 1017 vento: Nord O 22.2
14 Giugno 2024 17:50 tempo osservato: Sereno Sereno 24 50 1018 vento: Nord O 24
14 Giugno 2024 17:20 tempo osservato: Sereno Sereno 24 53 1018 vento: Nord O 24
14 Giugno 2024 16:50 tempo osservato: Sereno Sereno 24 53 1018 vento: Nord O 24
14 Giugno 2024 16:20 tempo osservato: Sereno Sereno 25 44 1018 vento: Nord O 22.2
14 Giugno 2024 15:50 tempo osservato: Sereno Sereno 25 47 1018 vento: Nord O 20.3
14 Giugno 2024 15:20 tempo osservato: Sereno Sereno 25 50 1018 vento: Nord O 20.3
14 Giugno 2024 14:50 tempo osservato: Sereno Sereno 25 50 1018 vento: Nord O 20.3
14 Giugno 2024 14:20 tempo osservato: Sereno Sereno 24 57 1018 vento: Nord O 20.3
14 Giugno 2024 13:50 tempo osservato: Sereno Sereno 24 53 1018 vento: Nord O 20.3
14 Giugno 2024 13:20 tempo osservato: Sereno Sereno 24 53 1019 vento: Nord O 22.2
14 Giugno 2024 12:50 tempo osservato: Sereno Sereno 24 50 1019 vento: Nord O 24
14 Giugno 2024 12:20 tempo osservato: Sereno Sereno 25 44 1019 vento: Nord O 22.2
14 Giugno 2024 11:50 tempo osservato: Sereno Sereno 24 53 1018 vento: Nord O 20.3
14 Giugno 2024 11:20 tempo osservato: Sereno Sereno 24 50 1018 vento: Nord O 20.3
14 Giugno 2024 10:50 tempo osservato: Sereno Sereno 25 47 1018 vento: Nord NO 11.1
14 Giugno 2024 10:20 tempo osservato: Sereno Sereno 24 47 1018 vento: Nord N 9.3
14 Giugno 2024 09:50 tempo osservato: Sereno Sereno 23 49 1018 vento: Nord N 7.4
14 Giugno 2024 09:20 tempo osservato: Sereno Sereno 22 53 1018 vento: Nord NE 7.4
14 Giugno 2024 08:50 tempo osservato: Sereno Sereno 21 56 1018 vento: Nord N/NE 11.1
14 Giugno 2024 08:20 tempo osservato: Sereno Sereno 20 59 1018 vento: Nord N/NE 11.1
14 Giugno 2024 07:50 tempo osservato: Sereno Sereno 18 67 1018 vento: Nord NE 9.3
14 Giugno 2024 07:20 tempo osservato: Sereno Sereno 17 77 1018 vento: Nord N 5.5
14 Giugno 2024 06:50 tempo osservato: Sereno Sereno 14 93 1018 vento: Nord N 3.7
14 Giugno 2024 06:20 tempo osservato: Sereno Sereno 13 93 1018 vento: Nord N 5.5
14 Giugno 2024 05:50 tempo osservato: Sereno Sereno 13 87 1017 vento: Nord N/NE 7.4